Regional Weather Roundup
Issued by NWS

Home | Current Version | Previous Version | Text Only | Print | Product List | Glossary Off
Versions: 1 2 3 4 5 6 7 8 9 10 11 12 13 14 15 16 17 18 19 20 21 22 23 24 25 26 27 28 29 30 31 32 33 34 35 36 37 38 39 40 41 42 43 44 45 46 47 48 49 50

000
ASUS43 KDMX 161001
RWRIA

WEATHER ROUNDUP FOR IOWA
NATIONAL WEATHER SERVICE DES MOINES IA
400 AM CST MON JAN 16 2017

NOTE: "FAIR" INDICATES FEW OR NO CLOUDS BELOW 12,000 FEET WITH NO
SIGNIFICANT WEATHER AND/OR OBSTRUCTIONS TO VISIBILITY.

* - THESE STATIONS ARE NOT NWS STATIONS...THUS NOT UNDER NWS
QUALITY CONTROL.  THEY ALSO DO NOT REPORT WEATHER SUCH
AS PRECIPITATION OR FOG.

IAZ001>003-012>014-020>022-031>034-043>046-161100-
   NORTHWEST IOWA

CITY           SKY/WX    TMP DP  RH WIND       PRES   REMARKS
CARROLL *      CLOUDY    32  32 100 E9        30.11F FOG     WCI  24
CHEROKEE *     MIX PCPN  31  31 100 CALM      30.11F
DENISON *      CLOUDY    32  32 100 E9        30.08F WCI  24
LE MARS *      CLOUDY    30  30 100 CALM      30.12F FOG
ORANGE CITY *  CLOUDY    28  28 100 E3        30.11F FOG
SHELDON *      CLOUDY    27  27 100 NE5       30.10F WCI  21
SIOUX CITY     FRZ RAIN  33  31  92 E3        30.10F FOG
SPENCER        CLOUDY    27  26  96 NE5       30.13F FOG     WCI  22
STORM LAKE *   CLOUDY    30  30 100 E8        30.09F FOG     WCI  23
$$

IAZ055>058-069>071-079>083-090>094-161100-
   SOUTHWEST IOWA

CITY           SKY/WX    TMP DP  RH WIND       PRES   REMARKS
ATLANTIC *     CLOUDY    32  32 100 E7        30.09F WCI  26
AUDUBON *      MIX PCPN  30  28  93 E6        30.10F WCI  24
CLARINDA *     CLOUDY    32  32 100 NE8       30.09F FOG     WCI  25
COUNCIL BLFS * CLOUDY    32  32 100 E8        30.08F FOG     WCI  25
CRESTON *      MIX PCPN  30  30 100 E12       30.10F WCI  21
HARLAN  *      CLOUDY    32  32 100 E9        30.12F WCI  24
LAMONI         FOG       31  30  96 E9        30.09F VSB 3/4 WCI  23
RED OAK *      CLOUDY    32  32 100 MISG      30.09F
SHENANDOAH *   MIX PCPN  32  32 100 NE8       30.07F WCI  25
$$

IAZ047>049-059>061-072>074-084-161100-
   CENTRAL IOWA

CITY           SKY/WX    TMP DP  RH WIND       PRES   REMARKS
AMES           MIX PCPN  31  31 100 E6        30.15F FOG     WCI  25
ANKENY *       CLOUDY    30  30 100 MISG      30.16S FOG
BOONE *        MIX PCPN  30  30 100 MISG      30.13F
CHARITON *     CLOUDY    30  30 100 E7        30.12F FOG     WCI  23
DES MOINES     FRZ RAIN  31  29  92 E7        30.15F FOG     WCI  24
GRINNELL*      MIX PCPN  30  29  96 E9        30.16F WCI  22
KNOXVILLE *    CLOUDY    30  30 100 E10       30.13F FOG     WCI  21
MARSHALLTOWN   FRZ RAIN  30  29  96 E14       30.16F FOG     WCI  19
NEWTON *       CLOUDY    30  30 100 E12       30.15F FOG     WCI  21
PELLA *        MIX PCPN  31  30  96 E7        30.16F WCI  24
PERRY *        CLOUDY    32  32 100 E8        30.13F FOG     WCI  25
$$

IAZ004>006-015-016-023>025-035-036-161100-
   NORTH CENTRAL IOWA

CITY           SKY/WX    TMP DP  RH WIND       PRES   REMARKS
ALGONA *       CLOUDY    28  28 100 SE6       30.14F FOG     WCI  22
CLARION *      CLOUDY    30  30 100 SE8       30.14F FOG     WCI  23
ESTHERVILLE    CLOUDY    25  25 100 SE5       30.13F WCI  19
FORT DODGE *   CLOUDY    30  27  86 CALM      30.14F
MASON CITY     FRZ RAIN  28  25  88 SE9       30.17F FOG     WCI  19
FOREST CITY *  MIX PCPN  28  27  93 E7        30.16F WCI  21
WEBSTER CITY * CLOUDY    32  32 100 E10       30.12F FOG     WCI  24
IOWA FALLS *   MIX PCPN  31  30  94 E7        30.17F WCI  24
$$

IAZ007>011-017>019-026>030-037>042-050>054-066-161100-
   NORTHEAST IOWA

CITY           SKY/WX    TMP DP  RH WIND       PRES   REMARKS
CEDAR RAPIDS   FRZ RAIN  30  28  92 E10       30.19F FOG     WCI  21
CHARLES CITY * CLOUDY    28  27  93 SE7       30.19F WCI  21
CLINTON *      LGT SNOW  31  29  92 E8        30.24F FOG     WCI  23
DECORAH *      CLOUDY    28  25  86 SE7       30.19F FOG     WCI  21
DUBUQUE        FRZ RAIN  29  24  82 SE10      30.23F WCI  20
MONTICELLO *   CLOUDY    30  28  93 E7        30.22F FOG     WCI  23
OELWEIN *      CLOUDY    28  28 100 SE10      30.20F FOG     WCI  19
WATERLOO       FRZ RAIN  30  27  88 SE8       30.19F FOG     WCI  22
$$

IAZ064-065-067-068-078-161100-
   EAST CENTRAL IOWA

CITY           SKY/WX    TMP DP  RH WIND       PRES   REMARKS
DAVENPORT      CLOUDY    31  29  92 E8        30.22F FOG     WCI  23
IOWA CITY      FRZ RAIN  32  30  92 E8        30.22F FOG     WCI  25
MUSCATINE *    MIX PCPN  32  30  93 E6        30.22F VSB 3/4 WCI  26
QUAD CITIES    MIX PCPN  32  29  88 E9        30.22F FOG     WCI  24
$$

IAZ062-063-075>077-085>089-095>099-161100-
   SOUTHEAST IOWA

CITY           SKY/WX    TMP DP  RH WIND       PRES   REMARKS
BURLINGTON     MIX PCPN  32  32 100 E8        30.17F VSB 3/4 WCI  25
FAIRFIELD *    FOG       32  30  93 E13       30.16F VSB 3/4 WCI  22
FORT MADISON * MIX PCPN  32  30  93 E7        30.18F VSB 1/2 WCI  26
KEOKUK *       FOG       32  32 100 E7        30.18R VSB 1/2 WCI  26
OSKALOOSA *    CLOUDY    31  30  96 E9        30.17F FOG     WCI  23
CENTERVILLE *  LGT RAIN  32  32 100 CALM      30.14F
OTTUMWA        CLOUDY    31  29  92 E10       30.15F FOG     WCI  22
WASHINGTON *   CLOUDY    32  32 100 E9        30.20F FOG     WCI  24
$$

ABBREVIATIONS USED IN REMARKS
   TC - TEMPERATURES IN CELSIUS
  WCI - WIND CHILL INDEX
   HX - HEAT INDEX
  VSB - VISIBILITY
$$




USA.gov is the U.S. government's official web portal to all federal, state and local government web resources and services.